Wetbulb
55.40 54.83 54.21 50.84 48.39 52.01 47.79 49.09 46.42 48.84 51.74 55.40 59.12 59.56 60.83 61.26 64.05 65.05 67.15 68.99 70.76 72.91 73.17 72.71 72.52 73.24 73.98 74.96 76.22 77.13 76.97 77.67
54.41 55.40 54.22 52.92 53.87 47.30 48.62 43.47 43.53 47.03 50.51 50.81 55.23 58.33 60.13 61.27 62.07 64.80 66.56 68.69 71.22 72.57 73.24 73.38 73.34 73.77 74.62 75.49 75.99 77.11 77.72 77.58
54.04 52.01 50.73 50.85 50.67 50.59 50.12 48.63 44.98 44.90 48.75 57.76 57.88 58.91 60.13 61.20 62.77 64.07 66.51 68.41 70.24 72.41 73.71 74.18 74.05 73.86 74.21 74.76 76.31 77.21 77.89 78.08
50.40 55.08 55.24 53.62 51.35 52.28 48.15 47.89 49.58 49.85 49.40 57.70 59.32 60.20 61.00 61.27 63.09 64.35 66.64 68.99 70.33 72.15 73.17 74.00 73.95 73.99 74.15 74.94 75.65 77.22 78.26 78.37
48.34 53.07 54.45 52.22 52.48 52.66 52.98 51.63 50.07 47.42 49.06 58.39 59.57 60.69 61.72 61.69 63.27 64.78 66.88 69.31 70.26 71.36 72.25 73.55 74.23 74.44 74.41 74.85 75.31 77.35 78.07 78.46
47.07 50.70 53.95 51.26 51.50 52.71 51.49 49.53 49.85 50.22 52.27 55.45 57.03 57.89 61.61 62.68 64.36 65.34 67.74 68.66 69.68 70.27 72.03 73.18 74.34 74.79 75.16 75.23 75.78 76.15 77.67 77.91
51.97 53.35 54.11 51.93 51.08 51.84 51.29 53.03 50.25 51.88 52.75 55.85 58.75 59.50 61.39 62.90 64.95 65.60 67.39 68.03 70.11 70.24 72.57 73.16 74.26 75.03 75.57 76.01 76.23 76.59 75.88 77.11
49.73 52.68 53.02 51.83 52.27 52.22 52.39 52.11 52.95 53.47 53.46 58.36 60.52 62.01 61.78 63.19 63.56 64.20 65.81 66.45 68.34 69.06 73.22 74.52 76.20 75.36 75.61 75.86 76.68 76.89 76.52 76.38
45.09 51.04 51.60 48.99 52.54 52.72 53.05 54.04 53.40 52.05 56.44 59.27 59.36 60.03 61.08 61.69 62.60 62.43 61.92 64.62 67.01 69.08 71.86 73.89 74.06 77.54 76.50 76.13 76.60 77.04 76.57 77.53
44.17 48.29 41.75 52.34 56.58 55.62 54.29 54.75 55.57 56.37 58.19 60.41 61.03 62.38 62.79 62.91 62.46 64.21 63.92 65.05 69.08 65.16 68.53 71.67 69.15 69.44 74.35 77.42 77.13 76.54 77.96 76.95
42.69 44.21 49.23 51.76 54.25 54.04 53.02 53.41 56.61 57.07 58.05 58.58 60.07 60.72 61.51 62.54 62.80 62.72 64.83 66.96 66.78 67.52 68.12 74.55 73.13 74.71 73.89 74.55 76.81 77.07 76.20 77.93
43.68 41.36 41.31 51.03 55.00 56.94 56.66 49.76 58.14 57.53 57.20 57.63 58.44 54.29 60.62 66.33 66.63 66.86 67.97 69.58 70.64 70.98 70.89 71.25 73.65 72.66 74.89 73.96 75.30 75.63 76.19 76.38
41.06 40.99 46.88 52.73 53.94 56.52 48.42 50.07 58.55 59.99 60.28 58.84 58.80 61.93 64.40 65.50 65.68 67.12 68.33 69.62 71.22 71.90 71.68 72.58 73.37 74.03 74.48 75.33 72.50 75.70 77.21 77.52
41.18 40.09 39.36 52.16 52.33 49.39 54.72 56.22 56.01 57.05 57.69 58.87 60.74 61.62 61.96 62.58 64.36 65.57 66.74 68.11 71.05 71.38 72.50 73.44 73.54 74.21 75.87 75.27 79.38 80.55 77.88 78.12
42.84 43.24 53.20 53.23 52.30 53.99 54.41 54.37 54.81 54.97 55.38 56.82 57.49 57.53 57.94 60.37 63.13 64.22 66.43 67.69 70.30 72.44 72.25 73.50 73.80 77.35 76.75 77.18 81.00 80.96 81.18 80.32
43.45 46.57 48.71 50.30 52.25 52.89 53.31 52.80 53.75 54.20 54.19 54.57 54.94 55.79 55.99 58.96 61.52 63.40 65.77 67.24 68.86 71.78 74.39 75.99 80.42 77.36 79.22 79.58 79.91 80.93 79.60 81.04
42.81 46.51 48.62 49.59 50.71 51.66 52.41 53.10 53.09 53.93 54.04 54.06 54.54 54.80 55.77 59.11 62.13 63.49 66.38 67.45 69.84 72.21 75.85 76.81 77.97 78.83 78.98 80.11 79.89 79.26 80.02 79.40
39.49 46.31 46.46 47.91 51.14 52.76 52.28 52.16 53.50 53.63 53.98 55.02 55.43 56.37 58.06 58.77 61.57 64.45 66.24 67.67 70.45 74.51 74.71 75.49 75.33 76.49 77.30 78.39 79.83 79.73 78.20 77.45
41.72 45.73 47.32 48.66 50.35 51.36 51.85 53.01 53.70 53.84 55.44 54.44 55.81 56.28 57.26 57.71 59.30 61.42 65.44 67.58 70.47 73.64 74.01 74.35 74.36 74.14 75.00 76.72 77.77 79.15 78.45 78.26
MSLP
989.25 989.71 989.93 990.35 990.13 991.40 991.60 991.65 991.14 990.60 990.59 990.31 989.71 989.48 989.22 989.27 989.81 990.86 992.14 993.51 995.16 996.99 998.81 1000.37 1001.73 1002.93 1003.88 1005.15 1006.38 1007.39 1008.14 1008.99
988.67 989.14 989.36 988.90 990.66 991.09 991.10 990.56 989.86 989.31 988.48 987.88 988.30 988.38 988.80 988.79 988.93 989.80 991.11 992.49 994.12 995.79 997.56 999.05 1000.25 1001.73 1003.19 1004.21 1005.27 1006.15 1007.15 1007.87
987.92 987.40 987.71 988.73 988.93 990.08 990.76 990.47 989.66 988.54 986.63 985.47 986.24 986.92 987.58 988.28 988.95 989.43 990.29 991.56 992.94 994.64 996.25 997.71 999.32 1000.68 1002.08 1003.36 1004.50 1005.51 1006.41 1007.06
987.12 986.45 987.49 988.13 988.53 988.92 989.24 989.69 989.39 988.15 986.29 985.46 985.14 986.00 986.96 987.73 988.39 989.44 989.94 990.91 992.13 993.50 995.08 996.74 998.19 999.51 1000.62 1002.06 1003.11 1004.25 1005.25 1006.14
987.95 986.49 986.13 986.69 987.68 988.52 988.93 989.38 988.66 988.06 986.87 986.50 985.73 985.87 986.79 987.64 988.31 989.08 989.97 990.51 991.59 992.73 994.05 995.36 996.80 998.15 999.42 1000.61 1001.67 1003.00 1004.35 1005.26
987.27 986.10 985.47 986.22 987.09 987.76 988.24 987.90 988.20 987.63 987.32 987.36 987.11 986.99 987.24 987.84 988.55 989.03 989.81 990.47 991.20 992.01 993.10 994.16 995.60 996.93 998.11 999.23 1000.35 1001.59 1002.72 1003.81
988.96 987.31 986.02 986.02 986.70 986.94 987.01 987.29 987.47 987.13 986.85 987.41 987.62 987.88 987.92 988.37 988.92 989.24 989.90 990.46 991.07 991.60 992.31 993.37 994.28 995.74 996.88 997.78 998.91 999.90 1001.10 1002.05
990.39 988.64 987.66 986.52 985.78 986.39 986.64 987.04 987.04 986.87 986.36 987.17 987.94 988.52 988.84 989.39 989.87 990.23 990.69 991.23 991.73 992.28 992.78 993.37 994.03 994.95 995.89 996.73 997.54 998.71 999.56 1000.28
992.05 990.71 988.83 987.11 985.91 985.70 986.38 986.53 986.85 986.46 986.49 986.95 987.94 988.65 989.28 990.08 990.78 991.31 991.78 992.05 992.34 992.62 993.08 993.47 993.98 994.65 995.26 996.05 996.84 997.62 998.59 999.48
994.11 992.13 989.97 988.28 987.15 986.93 986.45 986.47 986.70 987.02 986.79 987.46 988.16 988.84 989.55 990.40 991.25 992.01 992.39 992.68 992.93 993.07 993.17 993.29 993.55 994.00 994.76 995.46 996.41 997.14 997.90 998.58
995.19 993.14 991.23 989.43 988.02 987.52 987.47 987.25 987.33 987.35 987.64 988.00 989.28 989.97 990.86 991.50 992.00 992.70 993.24 993.51 993.63 993.64 993.27 993.28 993.34 993.55 994.28 995.11 995.80 996.62 997.30 997.86
996.71 994.46 992.07 990.74 988.92 988.22 988.26 989.22 989.75 989.26 989.29 989.43 990.36 991.47 992.85 993.34 993.73 994.19 994.51 994.78 994.78 994.67 994.28 994.16 994.03 993.66 993.86 994.61 995.31 995.99 996.45 997.02
998.28 996.30 993.61 992.59 991.55 990.22 990.67 994.05 993.07 992.15 991.34 991.42 992.29 993.78 994.48 994.74 995.37 995.63 995.65 995.64 995.35 995.16 994.92 994.66 994.53 994.30 994.36 994.66 994.46 994.89 995.65 996.31
999.26 997.43 995.95 995.75 994.29 994.03 995.31 995.47 995.25 995.00 994.82 994.67 994.83 995.26 995.60 995.96 996.35 996.45 996.45 996.26 995.74 995.22 994.95 994.70 994.48 994.43 994.37 994.55 994.48 994.49 994.85 995.45
999.92 998.40 996.78 997.29 996.71 997.16 996.91 996.77 996.88 997.06 997.07 997.14 996.97 996.97 997.33 997.28 997.24 997.09 997.00 996.95 996.42 995.48 994.85 994.52 994.25 994.13 994.35 994.42 994.43 994.53 994.75 994.97
1001.07 1000.01 998.75 998.50 998.19 998.25 998.24 998.27 998.40 998.52 998.47 998.52 998.49 998.38 998.18 997.93 997.67 997.57 997.50 997.48 996.91 995.98 994.80 994.26 993.87 994.07 994.40 994.40 994.47 994.44 994.51 994.79
1002.85 1001.64 1000.55 999.65 999.61 999.44 999.38 999.30 999.37 999.44 999.39 999.35 999.39 999.24 999.01 998.81 998.88 998.73 998.31 997.72 997.00 995.93 994.98 994.60 994.39 994.53 994.49 994.18 994.17 994.24 994.47 994.73
1004.98 1003.90 1003.23 1002.22 1001.30 1000.55 999.97 999.53 999.39 999.51 999.62 999.69 999.74 999.86 999.95 999.92 999.83 999.32 998.89 997.84 996.68 995.65 995.47 995.33 995.40 995.25 995.25 995.00 994.45 994.28 994.44 994.73
1006.41 1005.90 1004.25 1003.40 1002.63 1001.87 1001.28 1000.59 999.84 999.69 999.60 999.62 999.80 1000.02 1000.35 1000.29 1000.11 999.39 998.87 998.14 997.06 996.05 995.55 995.75 995.83 995.84 995.78 995.54 995.08 994.53 994.60 994.67
Wind_Speed
31 24 25 24 28 23 21 21 17 18 29 25 23 24 21 18 23 24 24 23 25 27 24 24 22 23 23 24 24 23 24 18
31 26 29 30 21 22 17 21 20 19 22 19 24 23 24 18 15 22 23 22 24 24 25 24 24 22 22 21 24 24 23 21
29 32 27 22 22 25 19 17 15 15 13 16 26 24 20 22 16 15 21 22 22 23 24 24 22 22 22 21 21 21 20 20
26 29 31 28 27 25 13 21 16 15 11 11 3 23 19 15 21 17 14 20 21 22 22 22 24 23 23 21 21 21 20 19
26 24 30 33 30 27 21 17 20 15 10 9 10 20 19 18 12 18 14 15 20 21 21 22 23 22 22 23 23 20 20 19
19 20 18 29 29 28 28 18 15 18 7 7 5 5 11 14 11 11 12 12 18 18 20 20 21 21 21 22 22 22 21 21
25 23 23 28 26 29 30 21 22 18 19 15 10 7 7 10 9 13 10 6 7 13 14 17 16 21 20 20 21 22 21 22
19 21 19 22 32 30 29 29 21 23 17 21 15 12 9 11 10 10 8 6 4 2 3 5 9 15 19 19 18 19 20 21
16 17 21 20 12 25 26 24 24 20 17 19 19 18 14 12 9 5 1 4 3 1 3 4 6 6 12 16 14 13 15 16
11 14 17 12 10 14 12 24 23 18 15 10 15 14 11 9 8 8 4 3 2 6 7 6 10 13 9 9 13 12 10 13
6 8 8 12 14 18 13 10 10 20 17 7 13 11 10 8 5 1 4 6 7 9 9 5 8 8 13 12 13 13 13 12
10 7 11 5 17 7 9 12 14 9 2 4 6 5 10 15 15 14 12 10 9 10 11 12 10 9 12 14 13 14 16 15
10 7 4 10 20 11 9 7 16 21 8 4 4 11 11 11 11 11 10 11 9 8 8 8 8 7 6 6 10 13 15 14
12 14 12 18 12 10 8 13 16 18 20 18 15 13 13 13 11 11 12 13 14 9 7 8 8 8 6 7 6 4 7 13
7 11 14 15 13 13 13 9 12 12 14 14 14 14 14 13 13 12 13 13 15 14 8 10 10 6 6 7 6 5 5 7
13 16 19 14 14 11 14 13 12 12 13 12 13 15 15 13 13 13 12 14 16 19 10 8 2 2 5 6 6 7 7 6
20 18 18 18 17 18 16 17 16 14 15 13 14 15 14 14 13 14 13 15 16 16 6 8 7 4 6 5 7 6 6 6
16 25 21 23 23 24 19 18 16 15 16 15 13 12 14 12 12 12 10 18 15 8 7 5 5 5 6 7 6 4 6 6
25 27 29 26 27 28 23 22 20 16 15 14 14 11 14 14 13 14 9 18 18 10 4 4 4 4 4 5 7 5 7 6
Wind_Direction
228 213 213 197 215 217 226 225 230 221 220 247 225 241 249 229 189 184 178 183 176 170 178 180 187 188 187 183 187 190 195 195
203 214 216 229 196 215 228 236 234 226 225 213 218 217 223 230 210 184 179 178 171 174 178 181 186 188 190 187 189 191 193 198
220 206 207 208 219 208 228 233 241 251 240 222 199 202 210 202 210 210 185 172 173 174 179 183 182 184 191 194 188 194 198 198
249 213 208 211 215 211 218 217 243 266 278 17 285 183 194 213 187 210 208 174 173 172 180 178 181 186 190 191 196 194 196 199
241 248 190 212 208 221 218 225 220 241 245 58 9 160 180 191 217 186 210 181 172 173 182 182 183 186 188 193 197 193 196 199
227 232 207 193 214 209 226 210 225 223 162 124 86 123 160 168 192 196 190 202 174 180 182 186 183 185 188 191 195 196 194 200
256 238 232 191 208 214 211 224 214 224 220 136 137 126 135 151 182 187 137 111 148 190 176 185 178 179 189 193 191 194 198 197
266 261 271 266 198 212 214 221 223 234 226 134 130 120 141 103 75 69 85 127 134 143 144 157 157 173 186 193 192 194 197 203
254 253 254 249 244 203 217 210 220 221 234 145 148 151 144 139 156 138 42 323 335 168 177 187 184 185 183 191 193 193 195 197
279 278 242 244 249 251 257 219 213 220 233 186 154 153 139 127 129 152 188 224 280 255 226 230 221 211 196 174 187 200 192 199
275 245 231 243 230 217 237 237 214 215 223 184 84 104 87 84 104 155 268 324 295 310 278 233 207 199 185 193 184 189 205 204
295 273 225 281 232 242 230 227 329 288 310 153 118 167 68 38 38 27 14 359 349 339 337 1 1 336 168 187 186 198 206 209
242 266 295 356 347 354 203 40 9 15 352 247 60 62 56 38 30 12 3 338 336 317 307 307 311 314 316 297 198 196 203 206
246 244 236 51 358 37 41 47 29 23 23 22 24 32 25 15 8 359 351 341 328 300 277 278 278 277 272 275 269 246 204 193
263 254 310 353 357 4 3 25 23 14 14 3 360 356 349 345 347 348 350 330 318 298 261 258 241 207 247 248 240 244 257 190
282 272 289 310 317 329 333 335 341 334 333 336 330 332 330 333 341 337 336 319 310 307 320 303 233 196 273 258 261 245 221 192
303 289 296 289 291 299 306 306 305 309 309 310 313 315 319 325 329 316 323 306 304 295 338 335 31 324 296 265 222 208 213 186
294 306 307 297 306 314 307 275 274 276 274 284 298 308 314 305 310 309 317 305 300 305 310 334 326 330 332 340 310 226 193 191
280 284 285 284 285 284 290 295 294 283 281 285 282 298 298 298 296 298 313 304 301 326 359 355 330 300 323 319 312 243 230 209